ARABSAT-5C

Last updated on Tue Oct 15 2024 00:02:39 GMT+0000 (Coordinated Universal Time)

1 37810U 11049B 24288.25882785 .00000122 00000+0 00000+0 0 9996 2 37810 0.0561 349.3226 0006547 211.5284 295.6439 1.00272652 47922
UTC large
Height (km)
Speed (km/s)
/
Latitude / Longitude
Inclination (degrees)
Orbital Period (minutes)
Azimuth
Elevation
Range (km)
Doppler Factor

Next 0 passes for location: London (51.5072 / 0.1276)

Sorry there are no passes over London.